Location: Leipzig
(51.3392°N, 12.3528°E)
Time: 00:14:33
(UTC+01:00)

ISS - Pass Details

Date: 09 January 2018
Orbit: 401 x 406 km, 51.6° (Epoch: 17 January)

Event Time Altitude Azimuth Distance (km) Brightness Sun altitude
Exits shadow 05:50:18 66° 107° (ESE) 446 -3.5 -21.3°
Drops below altitude 10° 05:53:12 10° 101° (ESE) 1,466 0.2 -20.8°
Sets 05:55:16 0° 101° (ESE) 2,326 1.6 -20.5°
